Weather History for Prague, Czech Republic

Change the Weather History Date:

Thursday, August 15, 2013

  Actual Average Record
Temperature  
Mean Temperature 62 °F -  
Max Temperature 78 °F 70 °F 87 °F (2001)
Min Temperature 45 °F 50 °F 45 °F (2013)
Degree Days  
Heating Degree Days 4    
Growing Degree Days 12 (Base 50)    
Moisture  
Dew Point 42 °F    
Average Humidity 56    
Maximum Humidity 87    
Minimum Humidity 24    
Precipitation  
Precipitation 0.00 in 0.07 in - ()
Sea Level Pressure  
Sea Level Pressure 30.24 in    
Wind  
Wind Speed 5 mph ()    
Max Wind Speed 8 mph    
Max Gust Speed -    
Visibility 6.2 miles    
Events      
Averages and records for this station are not official NWS values.
T = Trace of Precipitation, MM = Missing Value Source: Averaged Metar Reports

Daily Weather History Graph

Daily Weather History Graph

Search for Another Location

Airport:

Trip Planner

Search our weather history database for the weather conditions in past years. The results will help you decide how hot, cold, wet, or windy it might be!

Date:

Astronomy

Aug. 15, 2013 Rise Set
Actual Time 5:52 AM CEST 8:21 PM CEST
Civil Twilight 5:16 AM CEST 8:57 PM CEST
Nautical Twilight 4:30 AM CEST 9:42 PM CEST
Astronomical Twilight 3:36 AM CEST 10:35 PM CEST
Moon 3:30 PM CEST (8/15) No Moon Set
Length of Visible Light 15h 41m
Length of Day
14h 29m
First Quarter, 61% of the Moon is Illuminated
Aug 15
First Quarter
Aug 21
Full
Aug 28
Last Quarter
Sep 5
New
Sep 12
First Quarter

Hourly Weather History & Observations

Time (CEST) Temp. Windchill Dew Point Humidity Pressure Visibility Wind Dir Wind Speed Gust Speed Precip Events Conditions
12:00 AM 50.0 °F - 42.8 °F 76% 30.24 in - SW 3.5 mph - N/A   Clear
12:30 AM 50.0 °F - 44.6 °F 82% 30.24 in - WSW 5.8 mph - N/A   Clear
1:00 AM 48.2 °F - 42.8 °F 82% 30.24 in - West 6.9 mph - N/A   Clear
1:30 AM 48.2 °F - 42.8 °F 82% 30.24 in - West 5.8 mph - N/A   Clear
2:00 AM 48 °F - 43 °F 76% 30.27 in 31 mi SW 6.7 mph - -   Scattered Clouds
2:00 AM 48.2 °F - 42.8 °F 82% 30.24 in - SW 6.9 mph - N/A   Clear
2:30 AM 46.4 °F 42.9 °F 42.8 °F 87% 30.24 in - WSW 6.9 mph - N/A   Clear
3:00 AM 46.4 °F 43.5 °F 41.0 °F 81% 30.24 in - WSW 5.8 mph - N/A   Clear
3:30 AM 46.4 °F 42.4 °F 41.0 °F 81% 30.24 in - West 8.1 mph - N/A   Clear
4:00 AM 46.4 °F 42.4 °F 41.0 °F 81% 30.24 in - West 8.1 mph - N/A   Clear
4:30 AM 46.4 °F 43.5 °F 41.0 °F 81% 30.24 in - WSW 5.8 mph - N/A   Clear
5:00 AM 46.4 °F 42.4 °F 41.0 °F 81% 30.24 in - West 8.1 mph - N/A   Clear
5:30 AM 48.2 °F - 42.8 °F 82% 30.24 in - West 6.9 mph - N/A   Clear
6:00 AM 46.4 °F 45.2 °F 41.0 °F 81% 30.24 in - WSW 3.5 mph - N/A   Clear
6:30 AM 46.4 °F 44.3 °F 42.8 °F 87% 30.27 in - SW 4.6 mph - N/A   Clear
7:00 AM 48.2 °F - 44.6 °F 87% 30.27 in - SSW 5.8 mph - N/A   Clear
7:30 AM 51.8 °F - 46.4 °F 82% 30.27 in - SW 5.8 mph - N/A   Clear
8:00 AM 55 °F - 47 °F 68% 30.29 in 47 mi SSW 4.5 mph - -   Scattered Clouds
8:00 AM 55.4 °F - 46.4 °F 72% 30.27 in - South 3.5 mph - N/A   Clear
8:30 AM 57.2 °F - 48.2 °F 72% 30.27 in - Variable 2.3 mph - N/A   Clear
9:00 AM 60.8 °F - 46.4 °F 59% 30.30 in - Variable 1.2 mph - N/A   Clear
9:30 AM 62.6 °F - 46.4 °F 55% 30.27 in - Variable 1.2 mph - N/A   Clear
10:00 AM 62.6 °F - 44.6 °F 52% 30.30 in 6.2 mi Variable 2.3 mph - N/A   Partly Cloudy
10:30 AM 64.4 °F - 44.6 °F 49% 30.27 in - Variable 2.3 mph - N/A   Clear
11:00 AM 64.4 °F - 44.6 °F 49% 30.27 in - North 3.5 mph - N/A   Clear
11:30 AM 66.2 °F - 44.6 °F 46% 30.27 in - East 3.5 mph - N/A   Clear
12:00 PM 64.4 °F - 42.8 °F 45% 30.27 in - West 3.5 mph - N/A   Clear
12:15 PM 68.0 °F - 41.0 °F 37% 30.27 in - Variable 3.5 mph - N/A   Clear
12:30 PM 68.0 °F - 37.4 °F 33% 30.27 in - SSE 5.8 mph - N/A   Clear
1:00 PM 68.0 °F - 44.6 °F 43% 30.27 in - South 3.5 mph - N/A   Clear
1:30 PM 68.0 °F - 42.8 °F 40% 30.24 in - NW 6.9 mph - N/A   Clear
2:00 PM 70 °F - 41 °F 24% 30.23 in 44 mi WNW 4.5 mph - -   Scattered Clouds
2:00 PM 69.8 °F - 39.2 °F 33% 30.24 in - WNW 5.8 mph - N/A   Clear
2:30 PM 69.8 °F - 39.2 °F 33% 30.24 in - Variable 4.6 mph - N/A   Clear
3:00 PM 71.6 °F - 39.2 °F 31% 30.24 in - NW 5.8 mph - N/A   Clear
3:30 PM 69.8 °F - 37.4 °F 31% 30.21 in - WSW 5.8 mph - N/A   Clear
4:00 PM 69.8 °F - 35.6 °F 28% 30.21 in - Variable 2.3 mph - N/A   Clear
4:30 PM 69.8 °F - 37.4 °F 31% 30.21 in - SSE 4.6 mph - N/A   Clear
5:00 PM 69.8 °F - 37.4 °F 31% 30.21 in - SE 4.6 mph - N/A   Clear
5:30 PM 69.8 °F - 41.0 °F 35% 30.21 in - North 4.6 mph - N/A   Clear
6:00 PM 69.8 °F - 39.2 °F 33% 30.21 in - Variable 2.3 mph - N/A   Clear
6:30 PM 69.8 °F - 39.2 °F 33% 30.21 in - ENE 4.6 mph - N/A   Clear
7:00 PM 66.2 °F - 41.0 °F 40% 30.21 in - ENE 4.6 mph - N/A   Clear
7:30 PM 64.4 °F - 41.0 °F 42% 30.21 in - East 4.6 mph - N/A   Clear
8:00 PM 64 °F - 43 °F 35% 30.20 in 37 mi East 4.5 mph - -   Clear
8:00 PM 64.4 °F - 42.8 °F 45% 30.21 in - East 4.6 mph - N/A   Clear
8:30 PM 62.6 °F - 41.0 °F 45% 30.21 in - East 4.6 mph - N/A   Clear
9:00 PM 60.8 °F - 42.8 °F 52% 30.21 in - East 5.8 mph - N/A   Clear
9:30 PM 60.8 °F - 42.8 °F 52% 30.21 in - ESE 5.8 mph - N/A   Clear
10:00 PM 60.8 °F - 41.0 °F 48% 30.21 in - SE 5.8 mph - N/A   Clear
10:30 PM 60.8 °F - 41.0 °F 48% 30.21 in - SE 6.9 mph - N/A   Clear
11:00 PM 59.0 °F - 41.0 °F 51% 30.21 in - SE 5.8 mph - N/A   Clear
11:30 PM 59.0 °F - 41.0 °F 51% 30.21 in - SSE 8.1 mph - N/A   Clear